DECAYED
Showing default

FLOCK 3S 2, 43821 (Decayed)

Orbit data source: Space-Track

FLOCK 3S 2, 43821 was a payload satellite owned by Planet (US) in LEO that was launched on Mon, 03 Dec 2018 UTC via an FALCON 9 launch vehicle from the Air Force Western Test Range (AFWTR). Payload-class satellites include a variety of spacecraft equipped with specific instruments for various scientific and technological missions. These include communications satellites like Starlink; space stations such as the ISS; scientific satellites like the Hubble; Earth observation satellites from companies like Planet Labs, Umbra, and HawkEye 360; GPS; miniature CubeSats for education and research; and military/defense satellites.

Not visible in the next 10 days
Identifier
43821, 2018-099BR
Orbit
Decayed
Country
Flag of USUS
Related business
Manufacturer
Planet
Mission
Decayed Commercial Imaging
Bus & Motor
CUBESAT 3U, Unknown motor
Mass
4.7 kg wet, 4.7 kg dry
Launch date (UTC)
2018-12-03 (8 years ago)
Launch vehicle
FALCON 9
Launch site
Air Force Western Test Range (AFWTR)
Object type
Payload
Rocket body
Debris
Shape & HBR
Box + 2 Pan, 1.0 m
Radar Cross Section
0.108 m², Medium (>0.1 m² and < 1m²)

Expand to show TLE details & history
Last TLE update: 11 months ago

TLE from 11 months ago
0 FLOCK 3S 2
1 43821U 18099BR  25245.58205734  .07949261  24853-5  21745-2 0  9993
2 43821  97.4717 326.6260 0007594 302.3169  57.7388 16.28035396370673
Epoch: 2025-09-02T13:58Z
TLE epoch observation values (Epoch: 2025-09-02T13:58:09.754Z)
Latitude
Longitude
135.11413°
Altitude
198.395 km
Speed
7.789 km/s
True Right ascension
21h 46m 30s
True Declination
0° 00' 00"
Sunlit
Object was in full shadow at epoch
Visualization orbit readout
Latitude
Unknown
Longitude
Unknown
Altitude
Unknown
Speed
Unknown
Apparent Right ascension
Unknown
Apparent Declination
Unknown
Sunlit
N/A
Visualization observer readout
Local Sidereal Time
17:16:33
Azimuth
Unknown
Elevation
Unknown
Doppler factor
Unknown
Orbital elements
Apogee altitude
199.643 km
Perigee altitude
189.66 km
Semi-major axis
6,572.788 km
Eccentricity
0.00076
Inclination
97.4717°
RAAN
326.626°
Arg. of periapsis
302.3169°
True anomaly
57.81242°
Mean anomaly
57.7388°
Eccentric anomaly
57.77561°
Mean motion
4.07304 °/min
Orbital period
88.39 mins
BSTAR
0.0021745
Loading maneuver chart data...
Computing Atmospheric mass density...
Loading historical data...
Loading historical data...
Loading historical data...
Loading historical data...
Loading historical data...
Loading historical data...
Loading historical data...

Documentation

Showing up to 5 results
|